User: anonymous   Login
Location: Unspecified
(0.0000°N, 0.0000°E)
Time: 09:34:53
(UTC+00:00)
Language:

Explorer 25 - Orbit

View from above orbital plane
View from above orbital plane
View from above satellite
View from above satellite

Ground track
Ground track

The orbit data is extracted from the following two-line orbital elements,

1   932U 64076B   17295.91170199 +.00000052 +00000-0 +15275-4 0  9999
2   932 081.3383 280.1088 1132209 206.2390 147.6865 12.63882307419741
Epoch (UTC): 22 October 2017 21:52:51
Eccentricity: 0.1132209
inclination: 81.3383°
perigee height: 525 km
apogee height: 2288 km
right ascension of ascending node: 280.1088°
argument of perigee: 206.2390°
revolutions per day: 12.63882307
mean anomaly at epoch: 147.6865°
orbit number at epoch: 41974

The dashed part of the orbit path shows where the satellite is in the earth's shadow,  

DLR